Location: Northcutt
(34.7304°N, 84.4305°W)
Time: 18:08:58
(UTC+00:00)

SR - Pass Details

Date: 13 October 2022
Orbit: 577 x 874 km, 66.7° (Epoch: 05 December)

Event Time Altitude Azimuth Distance (km) Brightness Sun altitude
Rises 08:40:41 0° 339° (NNW) 3,253 - -37.6°
Reaches altitude 10° 08:43:17 10° 346° (NNW) 2,273 - -37.1°
Maximum altitude 08:48:14 44° 58° (ENE) 963 - -36.1°
Drops below altitude 10° 08:52:44 10° 131° (SE) 2,074 - -35.2°
Exits shadow 08:52:53 - 132° (SE) 2,130 ? -35.2°
Sets 08:55:01 0° 138° (SE) 2,938 ? -34.8°
